カタログに戻る

BREEZE-M DEB

TANK

運用中HEO
NORAD 33454·DEBRIS·🇷🇺 Russia

打ち上げ Dec 10, 2008 から Baikonur Cosmodrome

Loading…

次のパス (今後24時間)

TLE

最新Source: Space-Track

元期: Sep 14, 2026, 13:54 UTC

1 33454U 08063B   26257.57938539  .00001967  00000-0  36213-3 0  9998
2 33454  49.4680  11.9194 5343972 330.3907   7.8628  5.05928439317518

AllMySatでBREEZE-M DEBをリアルタイム追跡

Download on the App Store